Time,TemperatureF,DewpointF,PressureIn,WindDirection,WindDirectionDegrees,WindSpeedMPH,WindSpeedGustMPH,Humidity,HourlyPrecipIn,Conditions,Clouds,dailyrainin,SolarRadiationWatts/m^2,SoftwareType,DateUTC
2013-05-02 00:22:00,69.0,-28.0,-100.00,ENE,59,19.0,32.0,0,0.00,,,0.00,0.000000,,2013-05-02 10:22:00,
2013-05-02 00:32:00,69.0,-28.0,-100.00,ENE,59,19.0,32.0,0,0.00,,,0.00,0.000000,,2013-05-02 10:32:00,
2013-05-02 00:42:00,69.0,-28.0,-100.00,ENE,59,19.0,32.0,0,0.00,,,0.00,0.000000,,2013-05-02 10:42:00,
2013-05-02 00:52:00,70.0,-27.0,-100.00,SSE,164,16.0,30.0,0,0.00,,,0.00,0.000000,,2013-05-02 10:52:00,
2013-05-02 01:22:00,70.0,-27.0,-100.00,SSE,164,16.0,30.0,0,0.00,,,0.00,0.000000,,2013-05-02 11:22:00,
2013-05-02 01:32:00,70.0,-27.0,-100.00,SSE,164,16.0,30.0,0,0.00,,,0.00,0.000000,,2013-05-02 11:32:00,
2013-05-02 01:42:00,70.0,-27.0,-100.00,SSE,164,16.0,30.0,0,0.00,,,0.00,0.000000,,2013-05-02 11:42:00,
2013-05-02 01:52:00,68.0,-28.0,-100.00,SE,125,12.0,29.0,0,0.00,,,0.00,0.000000,,2013-05-02 11:52:00,
2013-05-02 02:21:00,68.0,-28.0,-100.00,SE,125,12.0,29.0,0,0.00,,,0.00,0.000000,,2013-05-02 12:21:00,
2013-05-02 02:32:00,68.0,-28.0,-100.00,SE,125,12.0,29.0,0,0.00,,,0.00,0.000000,,2013-05-02 12:32:00,
2013-05-02 02:42:00,68.0,-28.0,-100.00,SE,125,12.0,29.0,0,0.00,,,0.00,0.000000,,2013-05-02 12:42:00,
2013-05-02 02:52:00,69.0,-28.0,-100.00,ESE,105,25.0,37.0,0,0.00,,,0.00,0.000000,,2013-05-02 12:52:00,
2013-05-02 03:21:00,69.0,-28.0,-100.00,ESE,105,25.0,37.0,0,0.00,,,0.00,0.000000,,2013-05-02 13:21:00,
2013-05-02 03:31:00,69.0,-28.0,-100.00,ESE,105,25.0,37.0,0,0.00,,,0.00,0.000000,,2013-05-02 13:31:00,
2013-05-02 03:41:00,69.0,-28.0,-100.00,ESE,105,25.0,37.0,0,0.00,,,0.00,0.000000,,2013-05-02 13:41:00,
2013-05-02 03:52:00,68.0,-28.0,-100.00,West,266,18.0,35.0,0,0.00,,,0.00,0.000000,,2013-05-02 13:52:00,
2013-05-02 04:22:00,68.0,-28.0,-100.00,West,266,18.0,35.0,0,0.00,,,0.00,0.000000,,2013-05-02 14:22:00,
2013-05-02 04:32:00,68.0,-28.0,-100.00,West,266,18.0,35.0,0,0.00,,,0.00,0.000000,,2013-05-02 14:32:00,
2013-05-02 04:42:00,68.0,-28.0,-100.00,West,266,18.0,35.0,0,0.00,,,0.00,0.000000,,2013-05-02 14:42:00,
2013-05-02 05:22:00,68.0,-28.0,-100.00,SE,124,19.0,31.0,0,0.00,,,0.00,0.000000,,2013-05-02 15:22:00,
2013-05-02 05:33:00,68.0,-28.0,-100.00,SE,124,19.0,31.0,0,0.00,,,0.00,0.000000,,2013-05-02 15:33:00,
2013-05-02 05:43:00,68.0,-28.0,-100.00,SE,124,19.0,31.0,0,0.00,,,0.00,0.000000,,2013-05-02 15:43:00,
2013-05-02 05:52:00,69.0,-28.0,-100.00,ESE,116,16.0,30.0,0,0.00,,,0.00,0.000000,,2013-05-02 15:52:00,
2013-05-02 06:13:00,69.0,-28.0,-100.00,ESE,116,16.0,30.0,0,0.00,,,0.00,0.000000,,2013-05-02 16:13:00,
2013-05-02 06:22:00,69.0,-28.0,-100.00,ESE,116,16.0,30.0,0,0.00,,,0.00,0.000000,,2013-05-02 16:22:00,
2013-05-02 06:32:00,69.0,-28.0,-100.00,ESE,116,16.0,30.0,0,0.00,,,0.00,0.000000,,2013-05-02 16:32:00,
2013-05-02 06:43:00,69.0,-28.0,-100.00,ESE,116,16.0,30.0,0,0.00,,,0.00,0.000000,,2013-05-02 16:43:00,
2013-05-02 07:12:00,67.0,-29.0,-100.00,SE,130,13.0,30.0,0,0.00,,,0.00,0.000000,,2013-05-02 17:12:00,
2013-05-02 07:22:00,67.0,-29.0,-100.00,SE,130,13.0,30.0,0,0.00,,,0.00,0.000000,,2013-05-02 17:22:00,
2013-05-02 07:31:00,67.0,-29.0,-100.00,SE,130,13.0,30.0,0,0.00,,,0.00,0.000000,,2013-05-02 17:31:00,
2013-05-02 07:42:00,67.0,-29.0,-100.00,SE,130,13.0,30.0,0,0.00,,,0.00,0.000000,,2013-05-02 17:42:00,
2013-05-02 07:51:00,67.0,-29.0,-100.00,SE,130,13.0,30.0,0,0.00,,,0.00,0.000000,,2013-05-02 17:51:00,
2013-05-02 08:21:00,68.0,-28.0,-100.00,ENE,62,25.0,40.0,0,0.00,,,0.00,44.000000,,2013-05-02 18:21:00,
2013-05-02 08:31:00,68.0,-28.0,-100.00,ENE,62,25.0,40.0,0,0.00,,,0.00,44.000000,,2013-05-02 18:31:00,
2013-05-02 08:41:00,68.0,-28.0,-100.00,ENE,62,25.0,40.0,0,0.00,,,0.00,44.000000,,2013-05-02 18:41:00,
2013-05-02 08:51:00,68.0,-28.0,-100.00,ENE,62,25.0,40.0,0,0.00,,,0.00,44.000000,,2013-05-02 18:51:00,
2013-05-02 08:52:00,71.0,-26.0,-100.00,SSE,155,21.0,35.0,0,0.00,,,0.00,167.000000,,2013-05-02 18:52:00,
2013-05-02 09:21:00,71.0,-26.0,-100.00,SSE,155,21.0,35.0,0,0.00,,,0.00,167.000000,,2013-05-02 19:21:00,
2013-05-02 09:31:00,71.0,-26.0,-100.00,SSE,155,21.0,35.0,0,0.00,,,0.00,167.000000,,2013-05-02 19:31:00,
2013-05-02 09:41:00,71.0,-26.0,-100.00,SSE,155,21.0,35.0,0,0.00,,,0.00,167.000000,,2013-05-02 19:41:00,
2013-05-02 09:52:00,74.0,-25.0,-100.00,East,101,19.0,36.0,0,0.00,,,0.00,526.000000,,2013-05-02 19:52:00,
2013-05-02 10:22:00,74.0,-25.0,-100.00,East,101,19.0,36.0,0,0.00,,,0.00,526.000000,,2013-05-02 20:22:00,
2013-05-02 10:32:00,74.0,-25.0,-100.00,East,101,19.0,36.0,0,0.00,,,0.00,526.000000,,2013-05-02 20:32:00,
2013-05-02 10:41:00,74.0,-25.0,-100.00,East,101,19.0,36.0,0,0.00,,,0.00,526.000000,,2013-05-02 20:41:00,
2013-05-02 10:52:00,77.0,-23.0,-100.00,SSE,156,20.0,35.0,0,0.00,,,0.00,524.000000,,2013-05-02 20:52:00,
2013-05-02 11:21:00,77.0,-23.0,-100.00,SSE,156,20.0,35.0,0,0.00,,,0.00,524.000000,,2013-05-02 21:21:00,
2013-05-02 11:33:00,77.0,-23.0,-100.00,SSE,156,20.0,35.0,0,0.00,,,0.00,524.000000,,2013-05-02 21:33:00,
2013-05-02 11:42:00,77.0,-23.0,-100.00,SSE,156,20.0,35.0,0,0.00,,,0.00,524.000000,,2013-05-02 21:42:00,
2013-05-02 11:52:00,79.0,-21.0,-100.00,East,100,20.0,37.0,0,0.00,,,0.00,1090.000000,,2013-05-02 21:52:00,
2013-05-02 12:12:00,79.0,-21.0,-100.00,East,100,20.0,37.0,0,0.00,,,0.00,1090.000000,,2013-05-02 22:12:00,
2013-05-02 12:22:00,79.0,-21.0,-100.00,East,100,20.0,37.0,0,0.00,,,0.00,1090.000000,,2013-05-02 22:22:00,
2013-05-02 12:32:00,79.0,-21.0,-100.00,East,100,20.0,37.0,0,0.00,,,0.00,1090.000000,,2013-05-02 22:32:00,
2013-05-02 12:42:00,79.0,-21.0,-100.00,East,100,20.0,37.0,0,0.00,,,0.00,1090.000000,,2013-05-02 22:42:00,
2013-05-02 13:11:00,77.0,-23.0,-100.00,SSW,196,24.0,34.0,0,0.00,,,0.00,1231.000000,,2013-05-02 23:11:00,
2013-05-02 13:22:00,77.0,-23.0,-100.00,SSW,196,24.0,34.0,0,0.00,,,0.00,1231.000000,,2013-05-02 23:22:00,
2013-05-02 13:32:00,77.0,-23.0,-100.00,SSW,196,24.0,34.0,0,0.00,,,0.00,1231.000000,,2013-05-02 23:32:00,
2013-05-02 13:42:00,77.0,-23.0,-100.00,SSW,196,24.0,34.0,0,0.00,,,0.00,1231.000000,,2013-05-02 23:42:00,
2013-05-02 13:51:00,77.0,-23.0,-100.00,SSW,196,24.0,34.0,0,0.00,,,0.00,1231.000000,,2013-05-02 23:51:00,
2013-05-02 13:52:00,77.0,-23.0,-100.00,SW,229,25.0,37.0,0,0.00,,,0.00,1248.000000,,2013-05-02 23:52:00,
2013-05-02 14:21:00,77.0,-23.0,-100.00,SW,229,25.0,37.0,0,0.00,,,0.00,1248.000000,,2013-05-03 00:21:00,
2013-05-02 14:31:00,77.0,-23.0,-100.00,SW,229,25.0,37.0,0,0.00,,,0.00,1248.000000,,2013-05-03 00:31:00,
2013-05-02 14:41:00,77.0,-23.0,-100.00,SW,229,25.0,37.0,0,0.00,,,0.00,1248.000000,,2013-05-03 00:41:00,
2013-05-02 15:11:00,75.0,-24.0,-100.00,WNW,293,23.0,38.0,0,0.00,,,0.00,1107.000000,,2013-05-03 01:11:00,
2013-05-02 15:21:00,75.0,-24.0,-100.00,WNW,293,23.0,38.0,0,0.00,,,0.00,1107.000000,,2013-05-03 01:21:00,
2013-05-02 15:31:00,75.0,-24.0,-100.00,WNW,293,23.0,38.0,0,0.00,,,0.00,1107.000000,,2013-05-03 01:31:00,
2013-05-02 15:41:00,75.0,-24.0,-100.00,WNW,293,23.0,38.0,0,0.00,,,0.00,1107.000000,,2013-05-03 01:41:00,
2013-05-02 15:51:00,75.0,-24.0,-100.00,WNW,293,23.0,38.0,0,0.00,,,0.00,1107.000000,,2013-05-03 01:51:00,
2013-05-02 15:52:00,77.0,-23.0,-100.00,NNE,13,24.0,38.0,0,0.00,,,0.00,1052.000000,,2013-05-03 01:52:00,
2013-05-02 16:11:00,77.0,-23.0,-100.00,NNE,13,24.0,38.0,0,0.00,,,0.00,1052.000000,,2013-05-03 02:11:00,
2013-05-02 16:21:00,77.0,-23.0,-100.00,NNE,13,24.0,38.0,0,0.00,,,0.00,1052.000000,,2013-05-03 02:21:00,
2013-05-02 16:31:00,77.0,-23.0,-100.00,NNE,13,24.0,38.0,0,0.00,,,0.00,1052.000000,,2013-05-03 02:31:00,
2013-05-02 16:41:00,77.0,-23.0,-100.00,NNE,13,24.0,38.0,0,0.00,,,0.00,1052.000000,,2013-05-03 02:41:00,
2013-05-02 16:52:00,76.0,-23.0,-100.00,SSE,167,23.0,36.0,0,0.00,,,0.00,854.000000,,2013-05-03 02:52:00,
2013-05-02 17:21:00,76.0,-23.0,-100.00,SSE,167,23.0,36.0,0,0.00,,,0.00,854.000000,,2013-05-03 03:21:00,
2013-05-02 17:33:00,76.0,-23.0,-100.00,SSE,167,23.0,36.0,0,0.00,,,0.00,854.000000,,2013-05-03 03:33:00,
2013-05-02 17:42:00,76.0,-23.0,-100.00,SSE,167,23.0,36.0,0,0.00,,,0.00,854.000000,,2013-05-03 03:42:00,
2013-05-02 17:52:00,74.0,-25.0,-100.00,NW,321,22.0,37.0,0,0.00,,,0.00,371.000000,,2013-05-03 03:52:00,
2013-05-02 18:12:00,74.0,-25.0,-100.00,NW,321,22.0,37.0,0,0.00,,,0.00,371.000000,,2013-05-03 04:12:00,
2013-05-02 18:22:00,74.0,-25.0,-100.00,NW,321,22.0,37.0,0,0.00,,,0.00,371.000000,,2013-05-03 04:22:00,
2013-05-02 18:32:00,74.0,-25.0,-100.00,NW,321,22.0,37.0,0,0.00,,,0.00,371.000000,,2013-05-03 04:32:00,
2013-05-02 18:42:00,74.0,-25.0,-100.00,NW,321,22.0,37.0,0,0.00,,,0.00,371.000000,,2013-05-03 04:42:00,
2013-05-02 18:52:00,74.0,-25.0,-100.00,SSE,152,22.0,38.0,0,0.00,,,0.00,66.000000,,2013-05-03 04:52:00,
2013-05-02 19:21:00,74.0,-25.0,-100.00,SSE,152,22.0,38.0,0,0.00,,,0.00,66.000000,,2013-05-03 05:21:00,
2013-05-02 19:32:00,74.0,-25.0,-100.00,SSE,152,22.0,38.0,0,0.00,,,0.00,66.000000,,2013-05-03 05:32:00,
2013-05-02 19:42:00,74.0,-25.0,-100.00,SSE,152,22.0,38.0,0,0.00,,,0.00,66.000000,,2013-05-03 05:42:00,
2013-05-02 20:11:00,72.0,-26.0,-100.00,ESE,123,18.0,33.0,0,0.00,,,0.00,30.000000,,2013-05-03 06:11:00,
2013-05-02 20:21:00,72.0,-26.0,-100.00,ESE,123,18.0,33.0,0,0.00,,,0.00,30.000000,,2013-05-03 06:21:00,
2013-05-02 20:32:00,72.0,-26.0,-100.00,ESE,123,18.0,33.0,0,0.00,,,0.00,30.000000,,2013-05-03 06:32:00,
2013-05-02 20:42:00,72.0,-26.0,-100.00,ESE,123,18.0,33.0,0,0.00,,,0.00,30.000000,,2013-05-03 06:42:00,
2013-05-02 20:51:00,72.0,-26.0,-100.00,ESE,123,18.0,33.0,0,0.00,,,0.00,30.000000,,2013-05-03 06:51:00,
2013-05-02 20:52:00,71.0,-26.0,-100.00,NNW,329,18.0,35.0,0,0.00,,,0.00,0.000000,,2013-05-03 06:52:00,
2013-05-02 21:21:00,71.0,-26.0,-100.00,NNW,329,18.0,35.0,0,0.00,,,0.00,0.000000,,2013-05-03 07:21:00,
2013-05-02 21:31:00,71.0,-26.0,-100.00,NNW,329,18.0,35.0,0,0.00,,,0.00,0.000000,,2013-05-03 07:31:00,
2013-05-02 21:42:00,71.0,-26.0,-100.00,NNW,329,18.0,35.0,0,0.00,,,0.00,0.000000,,2013-05-03 07:42:00,
2013-05-02 21:52:00,70.0,-27.0,-100.00,South,178,18.0,29.0,0,0.00,,,0.00,0.000000,,2013-05-03 07:52:00,
2013-05-02 22:11:00,70.0,-27.0,-100.00,South,178,18.0,29.0,0,0.00,,,0.00,0.000000,,2013-05-03 08:11:00,
2013-05-02 22:21:00,70.0,-27.0,-100.00,South,178,18.0,29.0,0,0.00,,,0.00,0.000000,,2013-05-03 08:21:00,
2013-05-02 22:31:00,70.0,-27.0,-100.00,South,178,18.0,29.0,0,0.00,,,0.00,0.000000,,2013-05-03 08:31:00,
2013-05-02 22:42:00,70.0,-27.0,-100.00,South,178,18.0,29.0,0,0.00,,,0.00,0.000000,,2013-05-03 08:42:00,
2013-05-02 22:52:00,69.0,-28.0,-100.00,NE,35,14.0,29.0,0,0.00,,,-99.99,0.000000,,2013-05-03 08:52:00,
2013-05-02 23:11:00,69.0,-28.0,-100.00,NE,35,14.0,29.0,0,0.00,,,-99.99,0.000000,,2013-05-03 09:11:00,
2013-05-02 23:21:00,69.0,-28.0,-100.00,NE,35,14.0,29.0,0,0.00,,,-99.99,0.000000,,2013-05-03 09:21:00,
2013-05-02 23:32:00,69.0,-28.0,-100.00,NE,35,14.0,29.0,0,0.00,,,-99.99,0.000000,,2013-05-03 09:32:00,
2013-05-02 23:42:00,69.0,-28.0,-100.00,NE,35,14.0,29.0,0,0.00,,,-99.99,0.000000,,2013-05-03 09:42:00,
2013-05-02 23:52:00,69.0,-28.0,-100.00,SE,132,14.0,26.0,0,0.00,,,0.00,0.000000,,2013-05-03 09:52:00,